Regional Weather Roundup
Issued by NWS Bismarck, ND

Home | Current Version | Previous Version | Text Only | Print | Product List | Glossary On
Versions: 1 2 3 4 5 6 7 8 9 10 11 12 13 14 15 16 17 18 19 20 21 22 23 24 25 26 27 28 29 30 31 32 33 34 35 36 37 38 39 40 41 42 43 44 45 46 47 48 49 50
000
ASUS43 KBIS 011420
RWRBIS

NWR BROADCAST TEXT
NATIONAL WEATHER SERVICE BISMARCK ND
900 AM CDT WED OCT 01 2014

NOTE: "FAIR" INDICATES FEW OR NO CLOUDS BELOW 12,000 FEET WITH NO
SIGNIFICANT WEATHER AND/OR OBSTRUCTIONS TO VISIBILITY.


CITY           SKY/WX    TMP DP  RH WIND       PRES   REMARKS
WILLISTON      CLOUDY    53  49  86 W18       29.64R
MINOT          CLOUDY    54  51  90 W13       29.53R
MINOT AFB      CLOUDY    54  54 100 W10       29.52R
BISMARCK       PTSUNNY   57  50  77 W12       29.65R
DICKINSON      CLOUDY    52  48  86 W20       29.69R
GARRISON         N/A     54  52  93 W18G26    29.58R
HETTINGER ARPT PTSUNNY   52  48  86 W18       29.75R
JAMESTOWN      MOSUNNY   54  51  90 SW10      29.62R
BEACH            N/A     48  48 100 W21G31    29.75R
CARRINGTON     CLOUDY    57  57 100 SW17G25   29.60R
CROSBY           N/A    N/A N/A N/A MISG        N/A
HARVEY         CLOUDY    55  55 100 W20       29.57R
HAZEN          CLOUDY    55  50  82 W15G21    29.63R
LINTON         FAIR      55  54  94 SW8       29.69R
MANDAN         PTSUNNY   54  50  87 W14G20    29.67R
OAKES            N/A     55  54  94 SW10      29.67S
RUGBY          CLOUDY    54  54 100 SW12      29.52R FOG
STANLEY        PTSUNNY   50  50 100 W15G23    29.57R FOG
TIOGA          PTSUNNY   50  50 100 W21G31    29.61R FOG
WATFORD CITY   CLOUDY    50  50 100 W20G29    29.64R
$$

CITY           SKY/WX    TMP DP  RH WIND       PRES   REMARKS
GRAND FORKS    CLOUDY    59  54  83 S15G23    29.57R
GRAND FORKS AF CLOUDY    59  57  94 S14       29.57R
DEVILS LAKE    CLOUDY    55  50  82 SW18      29.53R
FARGO          PTSUNNY   60  56  86 S14       29.64S
CANDO          CLOUDY    54  50  87 SW13      29.52R
CAVALIER       CLOUDY    57  50  77 SW13G18   29.51S
GRAFTON        CLOUDY    57  54  88 S14       29.54S
GWINNER        SUNNY     61  54  77 SW12      29.68R
LANGDON        CLOUDY    54  50  87 SW18      29.50S
ROLLA          CLOUDY    48  48 100 SW16G25   29.50R
WALHALLA         N/A     55  55 100 SW14G25   29.49R
$$

CITY           SKY/WX    TMP DP  RH WIND       PRES   REMARKS
ABERDEEN       CLOUDY    56  51  84 SW6       29.70R
MOBRIDGE       PTSUNNY   56  51  84 W8        29.70R
BUFFALO          N/A     50  47  89 W18G26    29.74R
RAPID CITY     SUNNY     54  46  74 N10       29.81R
GLASGOW        CLOUDY    50  42  74 W16       29.76R
SIDNEY         MOCLDY    52  46  82 W18G24    29.72R
WOLF POINT     CLOUDY    53  46  77 W15       29.73R
GLENDIVE       CLOUDY    50  45  81 W20       29.78R
MILES CITY     CLOUDY    50  41  71 W18       29.84R
BAKER          CLOUDY    47  45  93 W20G30    29.78R
$$

CITY           SKY/WX    TMP DP  RH WIND       PRES   REMARKS
BILLINGS       CLOUDY    48  34  58 NW13G18   29.94R
GREAT FALLS    CLOUDY    43  40  89 SW12      29.96R
REGINA         CLOUDY    50  50 100 NW17G24   29.57R
ESTEVAN        LGT RAIN  52  52 100 W13       29.54R FOG
$$




USA.gov is the U.S. government's official web portal to all federal, state and local government web resources and services.